This is the latest recevied weather packets stored in our database for station/object N6RDS-8. If no packets are shown the sender has not sent any weather packets the latest 10 day(s).
| Time | Temp. | Humidity | Pressure | Rain* | Wind** | Luminosity | Snow |
|---|---|---|---|---|---|---|---|
| 1777754320 | 26.11° C | 34% | 1019.7 hPa | 0 mm | - | 728 W/m² | - |
| 1777754017 | 27.22° C | 32% | 1019.8 hPa | 0 mm | - | 786 W/m² | - |
| 1777753713 | 27.22° C | 33% | 1019.7 hPa | 0 mm | - | 842 W/m² | - |
| 1777753410 | 26.67° C | 33% | 1020 hPa | 0 mm | - | 820 W/m² | - |
| 1777753108 | 26.67° C | 33% | 1019.9 hPa | 0 mm | - | 859 W/m² | - |
| 1777752804 | 26.67° C | 34% | 1020.1 hPa | 0 mm | - | 826 W/m² | - |
| 1777752500 | 26.67° C | 34% | 1020.1 hPa | 0 mm | - | 449 W/m² | - |
| 1777752196 | 26.11° C | 36% | 1020.3 hPa | 0 mm | - | 893 W/m² | - |
| 1777751894 | 25.56° C | 37% | 1020.3 hPa | 0 mm | - | 817 W/m² | - |
| 1777751591 | 24.44° C | 38% | 1020.1 hPa | 0 mm | - | 863 W/m² | - |
| 1777751287 | 25° C | 38% | 1020.3 hPa | 0 mm | - | 237 W/m² | - |
| 1777750984 | 26.67° C | 37% | 1020.3 hPa | 0 mm | - | 381 W/m² | - |
| 1777750680 | 25° C | 37% | 1020.3 hPa | 0 mm | - | 864 W/m² | - |
| 1777750377 | 23.89° C | 39% | 1020.3 hPa | 0 mm | - | 840 W/m² | - |
| 1777750072 | 23.89° C | 40% | 1020.7 hPa | 0 mm | - | 200 W/m² | - |
| 1777749770 | 23.89° C | 40% | 1020.7 hPa | 0 mm | - | 204 W/m² | - |
| 1777749466 | 25.56° C | 38% | 1020.6 hPa | 0 mm | - | 639 W/m² | - |
| 1777749164 | 24.44° C | 39% | 1020.7 hPa | 0 mm | - | 809 W/m² | - |
| 1777748861 | 24.44° C | 40% | 1020.7 hPa | 0 mm | - | 824 W/m² | - |
| 1777748559 | 25° C | 40% | 1021 hPa | 0 mm | - | 732 W/m² | - |
| 1777748259 | 24.44° C | 40% | 1021.1 hPa | 0 mm | - | 802 W/m² | - |
| 1777747956 | 25° C | 40% | 1021.3 hPa | 0 mm | - | 782 W/m² | - |
| 1777747652 | 24.44° C | 41% | 1021 hPa | 0 mm | - | 877 W/m² | - |
| 1777747348 | 24.44° C | 42% | 1021.4 hPa | 0 mm | - | 404 W/m² | - |
| 1777747045 | 24.44° C | 41% | 1021.4 hPa | 0 mm | - | 765 W/m² | - |
* Rain latest hour (hover to see other rain measurements)
** Current wind speed in m/s (hover to see current wind gust speed)